BREEZE-KM R/B (44909 NORAD) Tracking and Keplerian Element Data

This shows tracking and keplerian element data for the satellite.

Feedback or suggestion? Click here.




ElementValue
Catalog44909
NameBREEZE-KM R/B
Epoch Orbit339
Epoch Day22.53144402
Epoch Year2020
RAAN92.9432
Inclination82.5213
Eccentricity0.0210007
Argument of Perigee208.6312
Mean Anonmoly150.3336
Mean Motion12.79704998
Decay Rate1.1E-07
L11 44909U 19096E 20022.53144402 .00000011 00000-0 00000+0 0 9991
L22 44909 82.5213 92.9432 0210007 208.6312 150.3336 12.79704998 3392

Live tracking and technical data element details for BREEZE-KM R/B (NORAD 44909). BREEZE-KM R/B can be tracked NOW for your location showing map with azimuth and elevation plus other details from your city location.

Track the satellite on the map from your city or location and see movement details for azimuth, elevation, latitude, longitude, range, height, and movement on the map or in text.







IsCatalogInMostPopularTable: catalog: 44909, numindb: 4
Update: records affected: 1



GetName: 44909 BREEZE-KM R/B

Hit Count: updated at: Fri, 24 Jan 2020 11:03:57 GMT